If you wish to contribute or participate in the discussions about articles you are invited to join SKYbrary as a registered user

 Actions

Amman/Marka

From SKYbrary Wiki

OJAM
Airport
ICAO: OJAM
Summary
Name Amman/Marka
Region Middle East
Territory Jordan JO.gif
Location Amman, Jordan
Serving
Coordinates 31° 58' 36.00" N, 35° 59' 30.00" E
Runways
Designator Length Width Surface ROPS
6/24 3275 m10,744.751 ft
45 m147.638 ft
ASP yes/yes


METAR
Observation OJAM 040300Z 25006KT 7000 NSC 23/09 Q1010 NOSIG
Station Amman Airport
Date/Time 04 July 2020 03:00:00
Wind direction 250°
Wind speed 06 kts
Lowest cloud amount nil significant cloud
Temperature 23°C
Dew point 9°C
Humidity 40%
QNH 1010 hPa
Weather condition n/a


Amman/Marka Airport

ICAO: OJAM IATA: ADJ

Description

Military airport.

Climatology

Dry-summer subtropical ”Mediterranean" climate (Köppen climate classification Csa) - characterized by hot, dry summers and mild winters. During the summer, subtropical high pressure cells dominate, making rainfall unlikely except for the occasional thunderstorm. In the winter, periodic storms bring rain.

Maps

Terrain

Loading map...

Airport Layout

Loading map...


Accidents & Serious Incidents at or in vicinity of OJAM

None on SKYbrary